Location: La Capelle
(50.7330°N, 1.7015°E)
Time: 01:16:28
(UTC+00:00)

Daily predictions for brighter satellites

Satellite Brightness Start Highest point End
(mag) Time Altitude Azimuth Time Altitude Azimuth Time Altitude Azimuth
GENESIS II 4.3 00:03:23 10° NW 00:07:25 73° NE 00:07:31 72° ENE
Cosmos 2333 4.2 00:03:09 10° NNW 00:08:56 69° WSW 00:10:14 52° S
Cosmos 2219 Rocket 2.1 00:03:46 10° NNW 00:09:29 88° ENE 00:11:13 47° SSE
Cosmos 836 Rocket 4.4 00:05:27 10° NNW 00:10:40 73° WSW 00:11:32 59° S
Cosmos 1464 Rocket 4.2 00:08:47 42° SSE 00:10:46 60° E 00:16:53 10° NNE
Lacrosse 4 Rocket 1.6 00:13:01 60° ESE 00:13:01 60° ESE 00:16:58 10° NE
Cosmos 1782 Rocket 3.6 00:12:54 59° ESE 00:13:08 60° E 00:17:26 10° NNE
Cosmos 2233 Rocket 4.3 00:10:46 37° SW 00:13:08 59° WNW 00:19:26 10° N
FALCON 9 DEB 3.9 00:15:49 52° NE 00:15:49 52° NE 00:18:46 10° ENE
Cosmos 2322 Rocket 3.8 00:13:04 10° NW 00:17:06 20° W 00:17:43 20° WSW
Cosmos 1354 Rocket 4.5 00:16:38 43° SE 00:17:30 47° ESE 00:22:37 10° NNE
SL-4 R/B 4.1 00:22:19 14° E 00:22:19 14° E 00:22:52 10° E
Cosmos 968 Rocket 3.3 00:19:13 60° S 00:20:06 79° ESE 00:25:15 10° NNE
Landsat 4 3.8 00:16:31 10° NNE 00:20:07 71° ENE 00:20:07 71° ENE
SL-16 R/B 4.3 00:15:53 10° NNW 00:20:31 24° NE 00:25:07 10° E
Cosmos 1908 Rocket 3.6 00:21:10 62° WSW 00:21:35 66° WNW 00:25:57 10° N
COSMOS 2428 2.6 00:21:51 10° NNW 00:27:37 78° WSW 00:29:11 49° S
Nadezhda 4 Rocket 4.0 00:26:28 10° N 00:32:49 76° E 00:35:18 39° SSE
Cosmos 2360 Rocket 3.3 00:28:19 10° NW 00:32:58 27° WSW 00:33:24 27° WSW
SL-16 R/B 3.5 00:28:36 16° SE 00:33:12 44° ENE 00:39:05 10° N
CENTAUR R/B 3.5 00:27:33 10° WSW 00:33:43 48° NNW 00:41:02 10° NE
CZ-2D R/B 3.8 00:31:25 10° NE 00:35:51 24° E 00:38:05 19° SE
Cosmos 2034 Rocket 4.1 00:35:41 41° SSE 00:37:53 68° E 00:44:10 10° NNE
USA 267 3.9 00:33:20 10° E 00:39:41 56° N 00:46:03 10° WNW
Cosmos 1513 Rocket 4.5 00:37:32 44° SSW 00:39:47 86° W 00:46:15 10° N
Cosmos 1072 Rocket 4.4 00:39:08 45° SSW 00:41:09 80° W 00:47:18 10° N
Cosmos 1743 4.0 00:41:15 31° W 00:41:30 31° WNW 00:45:02 10° N
GEOS 3 Rocket 4.1 00:36:38 10° NE 00:41:50 45° SE 00:42:46 41° SSE
Okean 2 Rocket 3.6 00:41:46 45° SE 00:42:28 49° E 00:46:50 10° NNE
Cosmos 1271 Rocket 4.3 00:39:35 10° NW 00:42:07 23° WNW 00:42:07 23° WNW
Meteor 2-9 Rocket 4.1 00:41:29 50° SSW 00:43:01 86° WNW 00:48:45 10° NNE
ADEOS II 4.5 00:41:58 10° ENE 00:43:57 12° E 00:45:57 10° ESE
Cosmos 1092 Rocket 4.3 00:38:40 10° N 00:44:54 61° ENE 00:48:01 30° SE
Cosmos 1975 Rocket 3.2 00:40:51 10° NNW 00:45:17 56° W 00:45:36 55° WSW
Cosmos 1544 3.8 00:45:29 43° WNW 00:45:29 43° WNW 00:48:53 10° N
Cosmos 1975 3.0 00:45:31 56° W 00:45:40 57° WNW 00:49:39 10° N
Cosmos 1980 3.9 00:40:58 10° NNW 00:46:40 70° ENE 00:49:52 27° SE
Cosmos 2297 Rocket 3.5 00:45:36 23° SE 00:47:15 27° ESE 00:51:53 10° NE
Cosmos 2333 Rocket 2.5 00:41:44 10° NW 00:47:15 48° WSW 00:48:12 44° SW
Cosmos 2219 4.3 00:45:50 27° SE 00:47:22 31° ESE 00:52:13 10° NE
PSLV R/B 3.8 00:42:55 10° N 00:47:32 70° WNW 00:48:26 55° SW
COSMOS 2487 3.9 00:48:08 28° WNW 00:48:18 28° WNW 00:51:21 10° N
Helios 1B rocket 2.2 00:44:24 10° NNE 00:48:31 88° E 00:48:49 76° S
Sich 1 Rocket 3.4 00:48:43 68° S 00:49:16 87° E 00:53:41 10° N
Meteor 1-29 3.3 00:49:01 10° NNE 00:52:12 58° ENE 00:52:12 58° ENE
Cosmos 44 Rocket 3.3 00:49:11 10° NW 00:54:08 69° SW 00:55:08 54° S
Cosmos 783 Rocket 4.5 00:49:06 10° NNW 00:54:19 67° WSW 00:55:27 52° SSW
Cosmos 2237 Rocket 2.3 00:51:02 10° NNW 00:56:44 77° ENE 00:59:51 28° SE
Cosmos 1503 Rocket 4.0 00:56:39 47° SW 00:58:13 78° WNW 01:03:39 10° NNE
Cosmos 1300 Rocket 3.6 00:57:53 56° SE 00:58:31 66° E 01:02:50 10° NNE
DELTA 2 DEB (DPAF) 4.4 01:00:27 40° SE 01:01:53 64° ENE 01:06:18 10° N
CZ-4 R/B 4.2 00:59:30 10° N 01:04:23 57° WNW 01:05:48 42° WSW
CZ-4C R/B 4.1 01:04:19 34° ESE 01:05:07 40° ENE 01:08:27 10° N
Spot 1 3.9 01:06:48 56° SSE 01:07:40 82° ENE 01:11:46 10° NNW
Cosmos 2151 Rocket 3.6 01:12:29 52° SSE 01:13:26 72° E 01:17:51 10° NNE
Meteor 1-12 Rocket 4.3 01:11:28 40° S 01:13:45 85° E 01:19:48 10° NNE
Timation 2 Rocket 3.9 01:14:34 39° S 01:16:56 70° ESE 01:22:58 10° NE
Cosmos 1707 3.0 01:13:13 10° NNW 01:17:03 52° W 01:17:05 52° W
In-Cosmos 22 4.1 01:11:26 10° NNW 01:17:06 82° W 01:19:15 39° S
Cosmos 1805 4.4 01:24:26 29° SE 01:25:33 36° E 01:29:08 10° NNE
DNEPR-1 R/B 4.2 01:19:44 10° NW 01:25:54 79° NE 01:30:53 10° SE
ERBS 2.5 01:22:54 10° NW 01:26:12 68° NNE 01:29:28 10° ESE
SJ 16-02 3.3 01:25:10 16° SE 01:27:04 21° E 01:30:24 10° NE
Meteor 2-13 Rocket 4.4 01:25:13 10° NNW 01:31:19 75° W 01:34:11 33° S
Cosmos 1538 Rocket 3.9 01:28:36 10° NNW 01:33:46 71° WSW 01:35:51 36° S
Cosmos 2195 Rocket 4.5 01:27:38 10° NNW 01:33:56 73° W 01:37:02 32° S
Cosmos 1025 Rocket 3.4 01:31:33 10° NNW 01:35:38 43° W 01:36:08 41° WSW
Cosmos 2227 Rocket 2.7 01:33:34 31° S 01:36:00 51° ESE 01:41:29 10° NE
Resurs 1-4 Rocket 2.2 01:31:46 10° NNE 01:37:04 70° ESE 01:39:24 34° S
MOZ.5/SAFIR/RUBIN 5/SL-8 4.0 01:36:59 42° SSW 01:38:14 56° W 01:42:56 10° NNW
Cosmos 1674 2.5 01:35:18 10° N 01:39:02 89° E 01:39:47 55° S
SL-19 R/B 4.4 01:34:40 10° NNE 01:40:43 71° WNW 01:43:22 33° SW
NOSS 0 Rocket 4.4 01:37:02 10° NW 01:42:47 40° WSW 01:44:40 32° SSW
Cosmos 1733 4.2 01:42:54 28° SE 01:44:19 40° E 01:47:56 10° NNE
Cosmos 1437 4.3 01:41:49 10° NW 01:43:28 22° WNW 01:43:28 22° WNW
ATLAS 3B R/B 3.6 01:40:55 11° W 01:46:58 42° NNW 01:53:19 10° NE
Cosmos 1536 Rocket 4.0 01:43:36 10° NNW 01:47:42 42° W 01:48:26 38° WSW
Cosmos 2026 Rocket 3.9 01:41:59 10° NNW 01:48:01 67° W 01:51:09 30° SSW
USA 215 3.9 01:42:13 10° ENE 01:48:22 42° SE 01:51:29 26° S
Cosmos 2279 Rocket 4.2 01:44:46 24° S 01:48:32 67° E 01:54:42 10° NNE
COBE Rocket 4.0 01:47:33 20° SSE 01:50:43 68° ENE 01:55:21 10° N
Lacrosse 4 Rocket 3.2 01:49:19 15° W 01:51:48 24° NW 01:55:17 10° NNE
FALCON 9 DEB 3.3 01:49:06 10° WNW 01:52:33 72° NNE 01:56:02 10° E
Cosmos 2219 Rocket 3.8 01:49:01 10° WNW 01:52:41 18° W 01:52:53 18° WSW
Cosmos 1634 Rocket 4.0 01:50:26 30° SSW 01:53:42 77° WNW 01:59:58 10° N
Cosmos 2344 4.4 01:44:46 10° NW 01:54:05 65° SW 02:07:02 10° SSE
Cosmos 2082 4.4 01:53:29 23° SSE 01:56:36 44° ESE 02:01:54 10° NE
SL-4 R/B 1.4 01:58:01 42° W 01:58:59 66° SSW 02:02:22 10° ESE
Cosmos 2112 Rocket 4.4 01:54:02 10° NNW 01:59:16 63° ENE 02:04:25 10° SE
Meteor 1-24 Rocket 3.7 01:58:52 10° N 02:04:26 80° ENE 02:08:55 15° SSE
SL-16 R/B 2.1 01:59:38 10° NNW 02:05:23 87° WSW 02:11:04 10° SSE
CBERS-1 4.4 02:00:49 10° NNE 02:05:53 58° ESE 02:09:09 22° S
Meteor 2-5 Rocket 3.6 02:02:28 10° NNW 02:08:09 76° W 02:11:59 21° S
COSMOS 2428 4.5 02:07:59 10° WNW 02:10:56 14° W 02:11:10 14° W
ARIANE 5 R/B 3.9 02:08:27 10° NNE 02:13:14 35° E 02:18:00 10° SSE
NPP 3.7 02:09:55 10° NNE 02:15:18 72° WNW 02:18:23 26° SSW
H-2A R/B 4.4 02:12:21 10° ESE 02:15:35 23° ENE 02:18:48 10° N
IDEFIX/ARIANE 42P 4.4 02:11:40 10° NE 02:15:59 26° E 02:20:17 10° SSE
CZ-2D R/B 2.4 02:10:54 10° N 02:16:18 62° WNW 02:19:24 26° SW
SL-16 R/B 3.0 02:13:43 25° SSW 02:16:51 42° W 02:22:47 10° NNW
Cosmos 1680 Rocket 3.4 02:11:49 10° NNW 02:17:06 85° WSW 02:22:18 10° SSE
GEOS 3 Rocket 4.3 02:14:40 10° NE 02:19:54 52° NW 02:23:51 17° WSW
NOSS 3-1 (C) 4.5 02:17:24 16° S 02:21:08 33° ESE 02:26:37 10° NE
AQUA 3.8 02:17:03 10° N 02:21:49 71° WNW 02:24:26 26° SSW
USA 267 3.2 02:15:57 10° ESE 02:22:31 88° SSW 02:29:06 10° WNW
Cosmos 1607 4.0 02:17:39 10° NW 02:24:03 65° SW 02:30:26 10° SSE
ADEOS II 2.2 02:19:19 10° NNE 02:24:36 74° ESE 02:28:23 19° S
Cosmos 1766 3.4 02:26:32 31° SW 02:28:10 56° WNW 02:32:01 10° N
IRS-1D 3.5 02:23:23 10° NNE 02:28:27 90° E 02:31:54 21° SSW
Cosmos 2263 Rocket 4.1 02:25:30 10° SSE 02:29:39 22° ESE 02:33:50 10° NE
Meteor 1-22 Rocket 4.0 02:27:12 21° S 02:30:48 90° SSW 02:36:10 10° NNE
Cosmos 2297 Rocket 2.4 02:27:24 23° SW 02:30:54 62° NW 02:36:32 10° NNE
Okean 1-7 Rocket 3.5 02:26:40 10° N 02:31:06 89° E 02:35:04 13° S
Cosmos 2219 3.6 02:27:45 22° SW 02:31:15 54° NW 02:36:48 10° NNE
IRS-1C 4.4 02:28:51 10° NNE 02:34:11 65° ESE 02:38:43 14° S
Uosat 12 SS-18 rocket 4.4 02:33:34 22° WSW 02:36:38 63° NW 02:41:01 10° NE
Cosmos 1626 2.4 02:33:35 10° NNW 02:37:11 48° W 02:38:56 26° SSW
Cosmos 2266 Rocket 4.0 02:31:34 10° N 02:37:59 83° W 02:44:17 10° S
Cosmos 1655 Rocket 4.0 02:32:36 10° NNW 02:38:50 65° W 02:44:27 13° S
Meteor 1-28 Rocket 3.2 02:36:22 11° SSE 02:40:02 85° ENE 02:43:52 10° NNW
Cosmos 2237 Rocket 3.5 02:36:05 10° NW 02:40:11 21° W 02:41:37 19° WSW
Okean 1 Rocket 3.9 02:38:14 23° WSW 02:40:16 35° WNW 02:44:18 10° N
CZ-4B R/B 3.5 02:37:00 10° N 02:41:45 62° WNW 02:44:51 21° SW
Cosmos 1470 2.9 02:41:43 17° S 02:44:41 73° E 02:48:41 10° NNE
Cosmos 1603 4.3 02:39:09 10° NNW 02:44:52 62° NE 02:50:32 10° SE
SL-08 R/B 3.4 02:44:29 10° S 02:49:25 72° WSW 02:54:24 10° NNW
Cosmos 2098 Rocket 3.5 02:48:28 10° NNW 02:53:02 63° W 02:58:48 10° S
USA 229 DEB 4.2 02:48:34 13° SSW 02:54:05 50° ESE 03:00:41 10° NE
USA 229 4.2 02:48:40 13° SSW 02:54:10 49° ESE 03:00:44 10° NE
Cosmos 158 Rocket 4.4 02:49:46 10° NW 02:54:51 44° WSW 02:59:56 10° S
SL-14 R/B 4.2 02:58:09 10° NNW 03:01:39 30° W 03:03:48 18° SW
ERBS 3.5 02:59:38 10° W 03:02:11 21° SW 03:04:44 10° S
NOSS 3-1 (A) 4.3 03:00:11 10° S 03:05:17 41° ESE 03:11:11 10° NE
SJ 16-02 1.7 03:02:10 18° SW 03:05:19 51° WNW 03:09:39 10° NNE
CSL-04 DEB 4.3 03:06:57 10° SSE 03:10:52 87° E 03:14:50 10° NNW
Cosmos 1809 Rocket 4.4 03:05:58 10° NNW 03:12:04 73° W 03:18:09 10° S
Cosmos 1943 3.4 03:06:30 10° NNW 03:12:10 79° ENE 03:17:48 10° SSE
IRS-P3 4.3 03:07:45 10° N 03:13:02 61° WNW 03:17:57 12° SSW
Cosmos 1626 Rocket 3.5 03:09:06 10° NNW 03:13:26 74° W 03:17:44 10° S
Cosmos 1455 Rocket 3.5 03:11:32 14° SSW 03:15:05 49° WNW 03:19:26 10° N
Resurs 1-4 Rocket 3.6 03:12:22 10° N 03:16:24 23° WNW 03:20:25 10° WSW
Spot 4 Rocket 4.1 03:11:45 10° NNE 03:16:57 81° ESE 03:22:07 10° SSW
Cosmos 1758 3.4 03:13:24 13° SSW 03:17:01 62° WNW 03:21:02 10° N
Meteor 1-21 Rocket 4.2 03:11:33 10° NNW 03:17:10 85° WSW 03:22:42 10° S
Cosmos 2227 Rocket 3.2 03:15:24 11° WSW 03:20:16 36° NW 03:25:30 10° NNE
SeaSat 1 3.6 03:16:39 10° NE 03:21:18 39° ESE 03:25:54 10° S
CZ-2C R/B 3.1 03:21:12 10° NNE 03:25:07 66° ESE 03:28:55 10° S
Landsat 5 3.3 03:21:42 10° SSE 03:25:36 89° W 03:29:40 10° NNW
CZ-2D R/B 3.4 03:22:38 10° NNE 03:26:44 77° WNW 03:30:43 10° SSW
Cosmos 1461 3.1 03:23:26 13° SW 03:27:22 77° NW 03:32:00 10° NE
FALCON 9 DEB 3.7 03:26:13 10° W 03:29:27 36° SSW 03:32:39 10° SE
Cosmos 1758 Rocket 3.9 03:27:04 10° N 03:31:23 69° ENE 03:35:41 10° SSE
USA 215 3.4 03:25:11 10° ENE 03:31:46 82° NNW 03:38:19 10° WSW
ATLAS CENTAUR R/B 4.0 03:31:20 10° SE 03:33:07 13° ESE 03:34:51 10° E
Cosmos 1340 Rocket 3.4 03:29:56 11° SW 03:33:38 42° WNW 03:37:26 10° N
Cosmos 724 4.5 03:29:09 10° NW 03:34:59 55° WSW 03:40:55 10° SSE
ERS-2 2.0 03:33:14 10° S 03:36:52 74° WSW 03:40:32 10° NNW
Cosmos 2228 4.4 03:33:54 10° SSE 03:38:00 41° E 03:42:08 10° NNE
SL-4 R/B 3.0 03:35:42 10° W 03:38:03 17° SW 03:40:23 10° S
ATLAS 3B R/B 4.5 03:33:50 10° WNW 03:39:22 27° N 03:45:02 10° NE
Cosmos 1953 2.4 03:35:57 10° SSW 03:39:57 68° WNW 03:44:00 10° N
Cosmos 2082 4.5 03:35:30 10° WSW 03:40:46 40° NW 03:46:04 10° NNE
Cosmos 1726 2.3 03:39:15 10° SSW 03:42:52 53° WNW 03:46:29 10° N
Cosmos 1908 3.6 03:41:12 10° S 03:45:04 67° E 03:48:59 10° NNE
Meteor 1-16 Rocket 4.2 03:40:53 10° S 03:46:15 85° E 03:51:48 10° NNE
SL-16 R/B 3.7 03:45:15 10° WNW 03:48:39 16° W 03:52:04 10° SW
H-2A R/B 2.3 03:47:24 10° S 03:51:20 44° W 03:55:18 10° NNW
ARIANE 5 R/B 3.2 03:47:32 10° N 03:52:24 41° WNW 03:57:16 10° SW
Cosmos 1937 Rocket 3.9 03:47:45 10° SW 03:52:56 52° WNW 03:58:10 10° NNE
Cosmos 1825 Rocket 3.6 03:49:37 10° N 03:54:00 89° WSW 03:58:19 10° S
CZ-2D R/B 4.2 03:52:43 10° NNW 03:55:21 14° NW 03:58:00 10° WNW
IDEFIX/ARIANE 42P 2.8 03:50:49 10° N 03:55:53 54° WNW 04:00:57 10° SW
